星链-35247(STARLINK-35247)

导读

STARLINK-35247是美国SpaceX星链星座的一员,于2025年9月18日发射升空。星链项目旨在构建全球卫星互联网星座,为全球范围用户提供低延迟宽带网络服务,该卫星加入后进一步扩大了星链星座的规模,增强星座的覆盖能力与服务稳定性,推进了SpaceX全球卫星互联网络的部署进程。

Basic Information
目录编号:
65622
目录名称:
STARLINK-35247
国际标识:
2025-210A
轨道中心:
EARTH
卫星名称:
星链-35247
卫星全名:
星链-35247(STARLINK-35247)
卫星状态:
在轨 (已飞行268 天)
发射日期:
2025-09-18 UTC
国别 :
美国 (US)
星等 :
--
Orbit Information
数据来源 国际轨道数据 AOE轨道数据
星历时间 2026-06-13T05:09:11+0800
18小时前
查看轨道信息
2026-06-12T04:00:00+0800
1天前
查看轨道信息
半长轴 6853.32km 6853.408km
偏心率 0.0001251 0.0001455
轨道倾角 53.159° 53.157°
近地点辐角 72.190° 55.655°
升交点赤经 225.051° 229.919°
平近点角 287.924° 287.834°
近地点 474.325km 474.273km
远地点 476.041km 476.269km
周期 94.105分钟 94.106分钟
每日圈数 15.30211 15.301816
Detailed Information
固有亮度:
5
最大亮度:
2.5
卫星平台:
Starlink V1.0
覆盖范围:
全球
运营商:
太空探索技术公司
运营商所在国:
美国
制造商(研发单位):
太空探索技术公司
制造商所在国:
美国
使用方式:
暂无
Satellite Introduction
Starlink 计划是 SpaceX 推出的全球卫星互联网项目,通过发射低轨道卫星,为全球尤其是偏远地区提供高速、低延迟的互联网服务。自 2019 年起,Starlink 已部署数千颗卫星,旨在缩小全球数字鸿沟,推动互联网普及。该项目还为军事、航空等行业提供通信支持,带来广泛经济效益。
2D Orbit Map
3D Orbit Map
Orbit Altitude Analysis Chart
Orbit Inclination Analysis Chart
Orbit Comprehensive Analysis Chart
View Comprehensive Chart